sat.trackr.live / text

‹ back to catalog

STARLINK-34070

NORAD 63913 · 2025-095Z

PAYLOAD ACTIVE UNKNOWN

§ Identity

Operator
Country
US
Launch date
2025-05-10
Launch site
AFETR
Launch vehicle
Mass (kg)
RCS (m²)

Purposes: comms

External: N2YO · Heavens-Above · Gunter

§ Orbital elements

Epoch: 2026-09-20T01:18:37.743264Z

Period
94.27 min
Inclination
43.0000°
Eccentricity
0.0001583
Mean motion
15.27592802 rev/d
Perigee alt
481.9 km
Apogee alt
484.1 km
Semi-major
6,861.1 km
B*
5.0433e-4
RAAN
158.5193°
Arg perigee
260.7157°
Mean anomaly
99.3516°
Rev number
7,750

§ Raw data

STARLINK-340701 63913U 25095Z   26263.05460351  .00013647  00000+0  50433-3 0  99942 63913  43.0000 158.5193 0001583 260.7157  99.3516 15.27592802 77501

JSON: /api/v1/satellites/63913 · /tle

For live sub-satellite position, see the globe view (requires WebGL).

§ Visibility from observer

Set your observer location to see the next 7 days of passes ≥ 10°. The values pass through the URL so the page stays shareable.

No JS? Fill the form by hand. The geolocation button needs JavaScript.